EHI
0 0 0 0 0 0 0 0 0 0 0 0 0 0 0 0 0 0 0 0 0 0 0 0 0 0 0 0 0 0 0 0 0 0 0 0 0 0 0 0 0 0 0
0 0 0 0 0 0 0 0 0 0 0 0 0 0 0 0 0 0 0 0 0 0 0 0 0 0 0 0 0 0 0 0 0 0 0 0 0 0 0 0 0 0 0
0 0 0 0 0 0 0 0 0 0 0 0 0 0 0 0 0 0 0 0 0 0 0 0 0 0 0 0 0 0 0 0 0 0 0 0 0 0 0 0 0 0 0
0 0 0 0 0 0 0 0 0 0 0 0 0 0 0 0 0 0 0 0 0 0 0 0 0 0 0 0 0 0 0 0 0 0 0 0 0 0 0 0 0 0 0
0 0 0 0 0 0 0 0 0 0 0 0 0 0 0 0 0 0 0 0 0 0 0 0 0 0 0 0 0 0 0 0 0 0 0 0 0 0 0 0 0 0 0
0 0 0 0 0 0 0 0 0 0 0 0 0 0 0 0 0 0 0 0 0 0 0 0 0 0 0 0 0 0 0 0 0 0 0 0 0 0 0 0 0 0 0
0 0 0 0 0 0 0 0 0 0 0 0 0 0 0 0 0 0 0 0 0 0 0 0 0 0 0 0 0 0 0 0 0 0 0 0 0 0 0 0 0 0 0
0 0 0 0 0 0 0 0 0 0 0 0 0 0 0 0 0 0 0 0 0 0 0 0 0 0 0 0 0 0 0 0 0 0 0 0 0 0 0 0 0 0 0
0 0 0 0 0 0 0 0 0 0 0 0 0 0 0 0 0 0 0 0 0 0 0 0 0 0 0 0 0 0 0 0 0 0 0 0 0 0 0 0 0 0 0
0 0 0 0 0 0 0 0 0 0 0 0 0 0 0 0 0 0 0 0 0 0 0 0 0 0 0 0 0 0 0 0 0 0 0 0 0 0 0 0 0 0 0
0 0 0 0 0 0 0 0 0 0 0 0 0 0 0 0 0 0 0 0 0 0 0 0 0 0 0 0 0 0 0 0 0 0 0 0 0 0 0 0 0 0 0
0 0 0 0 0 0 0 0 0 0 0 0 0 0 0 0 0 0 0 0 0 0 0 0 0 0 0 0 0 0 0 0 0 0 0 0 0 0 0 0 0 0 0
0 0 0 0 0 0 0 0 0 0 0 0 0 0 0 0 0 0 0 0 0 0 0 0 0 0 0 0 0 0 0 0 0 0 0 0 0 0 0 0 0 0 0
0 0 0 0 0 0 0 0 0 0 0 0 0 0 0 0 0 0 0 0 0 0 0 0 0 0 0 0 0 0 0 0 0 0 0 0 0 0 0 0 0 0 0
0 0 0 0 0 0 0 0 0 0 0 0 0 0 0 0 0 0 0 0 0 0 0 0 0 0 0 0 0 0 0 0 0 0 0 0 0 0 0 0 0 0 0
0 0 0 0 0 0 0 0 0 0 0 0 0 0 0 0 0 0 0 0 0 0 0 0 0 0 0 0 0 0 0 0 0 0 0 0 0 0 0 0 0 0 0
0 0 0 0 0 0 0 0 0 0 0 0 0 0 0 0 0 0 0 0 0 0 0 0 0 0 0 0 0 0 0 0 0 0 0 0 0 0 0 0 0 0 0
0 0 0 0 0 0 0 0 0 0 0 0 0 0 0 0 0 0 0 0 0 0 0 0 0 0 0 0 0 0 0 0 0 0 0 0 0 0 0 0 0 0 0
0 0 0 0 0 0 0 0 0 0 0 0 0 0 0 0 0 0 0 0 0 0 0 0 0 0 0 0 0 0 0 0 0 0 0 0 0 0 0 0 0 0 0
0 0 0 0 0 0 0 0 0 0 0 0 0 0 0 0 0 0 0 0 0 0 0 0 0 0 0 0 0 0 0 0 0 0 0 0 0 0 0 0 0 0 0
0 0 0 0 0 0 0 0 0 0 0 0 0 0 0 0 0 0 0 0 0 0 0 0 0 0 0 0 0 0 0 0 0 0 0 0 0 0 0 0 0 0 0
0 0 0 0 0 0 0 0 0 0 0 0 0 0 0 0 0 0 0 0 0 0 0 0 0 0 0 0 0 0 0 0 0 0 0 0 0 0 0 0 0 0 0
0 0 0 0 0 0 0 0 0 0 0 0 0 0 0 0 0 0 0 0 0 0 0 0 0 0 0 0 0 0 0 0 0 0 0 0 0 0 0 0 0 0 0
0 0 0 0 0 0 0 0 0 0 0 0 0 0 0 0 0 0 0 0 0 0 0 0 0 0 0 0 0 0 0 0 0 0 0 0 0 0 0 0 0 0 0
0 0 0 0 0 0 0 0 0 0 0 0 0 0 0 0 0 0 0 0 0 0 0 0 0 0 0 0 0 0 0 0 0 0 0 0 0 0 0 0 0 0 0
0 0 0 0 0 0 0 0 0 0 0 0 0 0 0 0 0 0 0 0 0 0 0 0 0 0 0 0 0 0 0 0 0 0 0 0 0 0 0 0 0 0 0
Wind_Speed
1 2 2 3 2 3 4 4 5 4 4 2 3 3 2 2 2 2 3 3 4 3 3 3 3 3 3 3 3 3 4 3 2 2 2 2 2 2 2 2 2 2 3
2 2 3 2 2 2 4 4 4 4 3 2 2 3 3 2 2 2 3 3 3 3 3 3 3 2 3 3 3 2 2 2 2 2 2 1 1 1 1 1 1 1 1
3 3 3 2 2 3 3 4 4 4 3 3 3 4 4 3 2 2 2 2 3 3 3 3 3 2 2 2 2 2 3 2 2 2 2 2 2 1 1 1 1 1 1
2 3 4 3 3 2 3 4 4 4 4 3 4 5 3 2 2 2 1 2 2 3 3 3 3 3 2 2 2 2 2 2 1 1 2 1 2 1 1 1 1 1 0
3 3 4 4 3 2 3 3 4 4 4 3 4 4 3 2 2 2 2 2 2 2 2 2 2 2 2 2 2 2 2 2 2 1 1 1 1 1 1 1 2 2 1
3 3 3 3 3 3 3 3 4 3 3 4 3 4 5 4 4 2 2 1 1 1 1 2 2 2 1 2 2 2 2 2 2 1 1 2 1 1 1 1 2 2 2
3 3 3 3 4 4 4 4 4 3 3 4 3 3 4 4 4 3 3 2 1 1 1 1 1 1 1 1 2 2 2 2 2 2 1 1 1 2 2 2 1 2 2
3 4 4 4 4 4 4 4 4 4 3 4 3 3 3 3 2 3 3 3 2 2 2 2 2 1 2 2 2 1 1 2 2 1 1 1 1 1 2 2 2 1 2
3 4 3 3 4 4 5 5 5 4 4 4 4 3 3 3 3 3 2 2 2 2 2 2 2 2 2 2 2 1 1 2 2 2 2 1 1 1 1 2 3 3 2
2 3 3 3 3 3 3 4 4 4 4 4 4 3 3 3 3 3 3 3 3 2 2 3 2 2 2 2 2 2 2 2 2 2 2 2 1 1 1 1 2 2 3
2 2 2 2 2 2 3 3 3 3 3 3 3 3 3 3 3 3 3 3 2 3 3 3 3 3 2 2 2 2 2 3 2 2 3 3 2 1 2 2 2 2 3
2 1 2 2 2 3 3 3 3 3 3 3 3 3 3 3 3 3 3 3 3 3 3 3 3 3 3 3 4 4 3 3 3 3 3 3 2 3 2 2 3 3 3
2 1 0 1 2 3 3 3 3 3 3 3 3 3 3 3 4 4 3 3 3 3 3 3 3 3 3 3 4 4 3 4 4 4 4 4 3 4 3 3 3 3 3
2 1 1 2 2 2 3 3 3 4 4 4 4 4 4 4 4 3 3 3 3 4 4 4 4 4 4 4 4 3 4 4 4 4 4 4 5 5 4 4 4 3 3
2 2 2 2 2 2 3 3 3 3 4 4 4 5 4 3 3 3 3 3 3 4 4 3 3 3 3 4 4 4 4 4 4 4 4 5 6 7 6 4 4 4 3
3 3 2 2 3 3 3 3 3 3 4 4 5 4 3 3 3 4 4 3 4 3 3 4 4 4 4 6 8 6 4 4 5 4 4 4 6 7 9 9 7 6 5
4 4 3 4 4 3 3 3 3 3 4 4 4 3 4 4 4 4 3 4 4 4 4 4 4 5 6 8 8 8 4 4 5 5 4 4 4 6 4 6 8 8 9
4 4 4 4 3 2 2 2 2 3 3 3 3 4 4 4 4 4 4 4 4 4 4 5 5 5 6 9 9 8 4 4 5 5 5 5 5 4 5 4 4 5 6
4 4 4 3 3 2 2 2 2 2 3 4 4 4 4 4 4 4 5 4 3 4 4 4 5 5 6 8 9 7 3 4 5 5 5 5 5 9 9 5 5 5 5
3 3 3 2 2 2 1 1 2 2 4 4 4 4 4 4 5 5 4 3 4 4 4 4 4 5 6 8 9 7 3 3 4 3 4 8 8 10 9 5 5 6 6
4 3 2 2 3 2 1 1 2 4 5 3 3 3 3 4 4 4 3 3 3 3 4 4 4 5 6 7 9 8 4 4 4 4 4 5 10 10 10 8 5 8 6
4 3 2 3 3 1 2 3 4 5 3 2 2 3 3 3 3 3 3 3 3 4 4 3 4 4 4 6 7 9 8 7 5 5 4 5 9 10 10 7 8 10 7
4 3 3 4 4 2 2 4 5 2 2 2 3 3 3 3 2 3 3 2 3 3 3 3 4 4 3 4 8 9 9 9 5 4 7 8 9 8 6 8 9 6 3
4 4 3 4 5 4 3 5 4 2 2 3 3 3 3 3 3 3 3 3 4 4 4 4 5 4 3 3 3 4 4 6 5 4 6 7 7 5 5 5 4 3 3
4 3 4 5 6 4 4 4 3 3 3 3 3 3 3 3 3 3 4 5 5 5 5 5 5 4 5 6 8 5 4 4 4 3 2 2 2 2 2 2 3 3 3
5 4 5 6 6 5 5 4 3 3 3 3 3 3 3 3 3 3 4 6 7 9 10 9 7 6 8 8 9 9 8 8 7 3 3 3 3 4 4 4 3 3 4
Wind_Direction
217 138 133 122 104 116 123 120 112 109 113 115 114 104 97 86 76 74 76 80 85 89 92 93 85 82 87 91 89 90 81 57 45 72 52 33 44 62 62 59 61 56 57
168 132 125 124 125 132 129 124 122 119 115 114 120 113 111 100 87 75 68 71 80 84 96 99 98 93 96 88 81 89 95 63 38 92 105 51 349 8 46 52 70 51 50
181 148 138 143 149 153 153 144 136 126 115 108 101 92 81 73 73 71 60 53 78 86 96 105 105 100 105 111 98 96 111 113 49 52 124 140 215 299 327 4 45 24 50
167 150 158 164 168 167 155 140 136 129 127 126 127 124 128 136 143 123 103 71 74 83 89 99 104 103 101 109 106 92 105 118 111 50 51 101 144 166 296 321 334 332 302
179 172 168 172 167 141 138 136 128 129 134 136 138 133 126 120 102 98 101 80 64 76 86 96 100 103 106 111 105 105 109 117 140 148 134 102 77 125 166 266 308 326 292
188 178 157 138 131 124 126 124 131 137 142 142 144 152 147 138 132 135 136 120 86 70 78 98 105 116 123 128 127 126 119 116 125 136 150 156 157 164 151 216 280 289 284
185 177 172 165 154 152 154 150 152 151 150 151 156 162 160 160 165 168 168 166 170 188 193 127 150 156 155 147 143 134 131 134 137 159 171 169 179 165 156 170 240 278 287
201 198 198 189 172 163 159 160 167 160 162 163 167 166 169 167 173 178 179 186 191 196 188 184 190 185 170 163 151 143 157 140 151 169 168 177 194 180 174 173 174 271 293
221 211 201 197 180 172 176 173 172 170 174 171 168 174 176 176 181 181 184 187 190 187 179 182 189 189 181 176 165 169 179 158 164 187 186 192 203 193 196 184 175 182 248
248 222 202 198 189 179 178 170 173 179 173 169 172 175 181 184 179 173 183 188 191 183 177 187 189 190 189 182 173 182 185 178 186 194 197 208 213 209 201 195 197 194 203
257 238 218 194 174 159 168 173 178 170 167 174 174 173 181 182 175 181 192 190 188 187 190 192 189 192 195 191 188 201 193 196 204 203 207 219 206 203 210 202 202 208 202
268 245 211 175 172 175 178 180 183 185 187 177 174 183 180 174 180 194 197 189 194 195 196 192 191 201 204 199 199 207 203 203 212 216 217 228 213 214 211 207 218 219 215
313 303 218 194 198 196 190 188 187 194 188 173 176 179 182 186 197 203 199 193 193 196 197 195 204 211 210 208 212 209 209 211 216 216 218 226 212 226 221 216 227 232 229
313 301 266 237 215 206 203 199 201 194 184 180 183 192 200 204 207 202 198 198 196 199 205 210 215 217 215 214 215 213 216 219 223 222 221 220 214 223 223 222 224 227 234
318 288 262 246 226 214 213 208 210 199 188 186 195 209 204 200 202 202 204 203 203 209 208 210 220 221 218 219 217 217 218 219 228 232 229 227 226 228 225 225 219 213 226
298 291 279 265 246 229 220 210 213 208 191 197 210 208 191 192 203 208 203 204 210 213 209 213 217 224 231 241 237 226 218 217 221 232 236 238 238 241 244 245 237 221 220
293 289 277 265 256 243 222 216 217 198 192 206 211 203 197 203 210 207 201 210 216 213 219 223 220 230 240 245 245 235 217 216 220 224 227 237 238 241 238 251 251 248 248
290 287 282 277 269 255 236 221 195 188 199 210 216 210 204 213 212 206 215 221 215 214 221 227 227 235 247 248 245 240 221 218 225 224 222 226 237 234 232 230 239 246 252
273 273 270 266 270 265 243 200 198 195 200 216 221 217 209 213 213 218 227 223 215 222 224 227 226 234 250 248 245 237 212 222 234 232 226 225 231 244 246 236 238 252 261
286 284 285 280 276 272 233 184 225 219 229 231 227 220 211 211 219 225 228 224 217 225 225 234 231 231 243 250 247 233 205 222 237 239 237 239 240 246 245 233 229 247 256
293 294 294 285 271 262 189 218 239 243 244 238 229 225 219 220 226 230 231 226 221 222 227 238 243 237 240 252 248 234 211 214 228 236 237 237 246 250 250 245 233 247 257
303 301 299 292 289 258 203 236 249 252 250 229 231 237 235 231 225 222 233 223 213 221 232 237 253 247 245 246 249 242 237 230 222 233 235 238 247 251 252 250 251 260 266
291 292 284 290 292 266 221 240 256 257 243 235 241 247 248 240 223 217 226 228 216 222 234 231 246 256 246 249 252 250 249 246 235 231 240 248 253 255 255 254 258 261 241
287 289 286 285 285 275 251 243 253 240 223 236 248 246 240 247 239 226 220 220 220 226 232 233 241 250 250 242 239 238 242 243 242 242 249 256 258 253 254 261 258 237 224
286 281 273 272 272 272 265 259 246 219 223 236 242 245 239 234 238 236 227 227 228 221 225 231 228 234 249 247 241 238 230 219 224 230 226 228 240 236 239 243 243 236 237
286 284 276 270 271 270 268 265 249 220 222 240 243 241 242 239 235 246 268 250 245 255 250 248 243 244 249 255 249 249 252 250 241 238 228 233 234 238 239 241 244 236 235